Orbital Elements at Epoch 2459200.5 (2020-Dec-17.0) TDB
Reference: JPL 16 (heliocentric ecliptic J2000)
Element | Value | Uncertainty (1-sigma) | Units |
e | .07815668196881057 | 4.3176e-08 | |
a | 2.225331659099221 | 1.0044e-08 | au |
q | 2.051407120343878 | 9.7463e-08 | au |
i | 5.592702703880529 | 4.8785e-06 | deg |
node | 43.6328877884168 | 4.8206e-05 | deg |
peri | 69.62448806930529 | 5.9082e-05 | deg |
M | 349.7725300992289 | 3.241e-05 | deg |
tp | 2459234.947384763661 (2021-Jan-20.44738476) | 0.00010914 | TDB |
period | 1212.524567193588 3.32 | 8.2091e-06 2.248e-08 | d yr |
n | .2969012008005965 | 2.0101e-09 | deg/d |
Q | 2.399256197854565 | 1.0829e-08 | au |
|
| | Orbit Determination Parameters
Additional Information
|